Hourly Weather Gogino

Today, 15 May, Saturday

Time Temperature Precipitation Wind Pressure Humidity
00:00 +10°C° 0 mm 2 mps 735 mmHg 96%
01:00 +10°C° 0 mm 2 mps 734 mmHg 96%
02:00 +12°C° 0 mm 2 mps 734 mmHg 97%
03:00 +12°C° 0.2 mm 2 mps 734 mmHg 97%
04:00 +12°C° 0.2 mm 2 mps 733 mmHg 98%
05:00 +12°C° 0.2 mm 2 mps 733 mmHg 98%
06:00 +13°C° 0.3 mm 2 mps 733 mmHg 96%
07:00 +14°C° 0.3 mm 2 mps 733 mmHg 94%
08:00 +14°C° 0.3 mm 2 mps 733 mmHg 92%
09:00 +15°C° 0.1 mm 2 mps 733 mmHg 88%
10:00 +16°C° 0.1 mm 3 mps 733 mmHg 84%
11:00 +17°C° 0.1 mm 3 mps 733 mmHg 79%
12:00 +19°C° 0.1 mm 3 mps 733 mmHg 70%
13:00 +20°C° 0.1 mm 3 mps 732 mmHg 60%
14:00 +21°C° 0.1 mm 4 mps 732 mmHg 51%
15:00 +20°C° 0.4 mm 4 mps 732 mmHg 59%
16:00 +19°C° 0.4 mm 4 mps 732 mmHg 67%
17:00 +18°C° 0.4 mm 3 mps 732 mmHg 75%
18:00 +17°C° 0.3 mm 3 mps 732 mmHg 81%
19:00 +14°C° 0.3 mm 3 mps 732 mmHg 87%
20:00 +14°C° 0.3 mm 2 mps 732 mmHg 93%
21:00 +13°C° 0 mm 2 mps 732 mmHg 94%
22:00 +13°C° 0 mm 2 mps 732 mmHg 95%
23:00 +12°C° 0 mm 2 mps 732 mmHg 96%

Tomorrow, 16 May, Sunday

Time Temperature Precipitation Wind Pressure Humidity
00:00 +12°C° 0 mm 2 mps 732 mmHg 96%
01:00 +10°C° 0 mm 2 mps 732 mmHg 97%
02:00 +10°C° 0 mm 2 mps 733 mmHg 97%
03:00 +10°C° 0 mm 2 mps 733 mmHg 97%
04:00 +10°C° 0 mm 2 mps 733 mmHg 96%
05:00 +12°C° 0 mm 2 mps 734 mmHg 96%
06:00 +12°C° 0 mm 3 mps 734 mmHg 90%
07:00 +14°C° 0 mm 3 mps 734 mmHg 85%
08:00 +16°C° 0 mm 3 mps 735 mmHg 79%
09:00 +17°C° 0.3 mm 3 mps 735 mmHg 74%
10:00 +19°C° 0.3 mm 3 mps 735 mmHg 69%
11:00 +20°C° 0.3 mm 3 mps 735 mmHg 64%
12:00 +20°C° 0.6 mm 3 mps 735 mmHg 64%
13:00 +20°C° 0.6 mm 3 mps 736 mmHg 64%
14:00 +20°C° 0.6 mm 2 mps 736 mmHg 63%
15:00 +20°C° 0.1 mm 2 mps 736 mmHg 63%
16:00 +20°C° 0.1 mm 2 mps 736 mmHg 63%
17:00 +20°C° 0.1 mm 2 mps 736 mmHg 62%
18:00 +18°C° 0.1 mm 2 mps 736 mmHg 70%
19:00 +16°C° 0.1 mm 1 mps 737 mmHg 79%
20:00 +14°C° 0.1 mm 1 mps 737 mmHg 87%
21:00 +14°C° 0 mm 1 mps 737 mmHg 89%
22:00 +13°C° 0 mm 1 mps 737 mmHg 90%
23:00 +12°C° 0 mm 1 mps 737 mmHg 92%

Day after tomorrow, 17 May, Monday

Time Temperature Precipitation Wind Pressure Humidity
00:00 +12°C° 0 mm 1 mps 738 mmHg 93%
01:00 +12°C° 0 mm 1 mps 738 mmHg 94%
02:00 +12°C° 0 mm 1 mps 738 mmHg 95%
03:00 +12°C° 0 mm 1 mps 738 mmHg 94%
04:00 +12°C° 0 mm 1 mps 738 mmHg 94%
05:00 +13°C° 0 mm 1 mps 738 mmHg 94%
06:00 +15°C° 0 mm 2 mps 738 mmHg 87%
07:00 +17°C° 0 mm 2 mps 738 mmHg 80%
08:00 +18°C° 0 mm 3 mps 738 mmHg 73%
09:00 +20°C° 0 mm 3 mps 738 mmHg 67%
10:00 +21°C° 0 mm 3 mps 738 mmHg 62%
11:00 +22°C° 0 mm 4 mps 738 mmHg 56%
12:00 +22°C° 0 mm 4 mps 737 mmHg 54%
13:00 +23°C° 0 mm 4 mps 737 mmHg 52%
14:00 +25°C° 0 mm 4 mps 737 mmHg 51%
15:00 +23°C° 0 mm 4 mps 736 mmHg 54%
16:00 +23°C° 0 mm 4 mps 735 mmHg 58%
17:00 +23°C° 0 mm 4 mps 735 mmHg 62%
18:00 +22°C° 0.4 mm 4 mps 734 mmHg 71%
19:00 +20°C° 0.4 mm 4 mps 734 mmHg 80%
20:00 +18°C° 0.4 mm 4 mps 734 mmHg 88%
21:00 +18°C° 0.2 mm 4 mps 733 mmHg 90%
22:00 +18°C° 0.2 mm 4 mps 733 mmHg 92%
23:00 +17°C° 0.2 mm 4 mps 733 mmHg 94%

18 May, Tuesday

Time Temperature Precipitation Wind Pressure Humidity
00:00 +17°C° 0 mm 4 mps 732 mmHg 94%
01:00 +17°C° 0 mm 4 mps 732 mmHg 94%
02:00 +17°C° 0 mm 4 mps 732 mmHg 94%
03:00 +17°C° 0 mm 4 mps 731 mmHg 93%
04:00 +17°C° 0 mm 4 mps 731 mmHg 93%
05:00 +17°C° 0 mm 4 mps 731 mmHg 92%
06:00 +18°C° 0.1 mm 4 mps 731 mmHg 89%
07:00 +19°C° 0.1 mm 5 mps 730 mmHg 85%
08:00 +20°C° 0.1 mm 5 mps 730 mmHg 82%
09:00 +21°C° 0 mm 5 mps 730 mmHg 75%
10:00 +23°C° 0 mm 5 mps 730 mmHg 68%
11:00 +24°C° 0 mm 6 mps 730 mmHg 61%
12:00 +23°C° 0.6 mm 6 mps 730 mmHg 66%
13:00 +23°C° 0.6 mm 5 mps 730 mmHg 71%
14:00 +22°C° 0.6 mm 5 mps 730 mmHg 76%
15:00 +21°C° 0.5 mm 5 mps 730 mmHg 78%
16:00 +20°C° 0.5 mm 5 mps 730 mmHg 81%
17:00 +19°C° 0.5 mm 5 mps 730 mmHg 83%
18:00 +18°C° 0.2 mm 4 mps 730 mmHg 87%
19:00 +17°C° 0.2 mm 3 mps 731 mmHg 90%
20:00 +14°C° 0.2 mm 3 mps 731 mmHg 93%
21:00 +15°C° 0 mm 2 mps 731 mmHg 95%
22:00 +14°C° 0 mm 2 mps 731 mmHg 96%
23:00 +13°C° 0 mm 1 mps 731 mmHg 97%

19 May, Wednesday

Time Temperature Precipitation Wind Pressure Humidity
00:00 +13°C° 0 mm 1 mps 731 mmHg 97%
01:00 +13°C° 0 mm 1 mps 731 mmHg 97%
02:00 +13°C° 0 mm 1 mps 731 mmHg 97%
03:00 +13°C° 0.1 mm 1 mps 731 mmHg 97%
04:00 +13°C° 0.1 mm 1 mps 730 mmHg 97%
05:00 +14°C° 0.1 mm 1 mps 730 mmHg 96%
06:00 +14°C° 0.1 mm 2 mps 730 mmHg 94%
07:00 +15°C° 0.1 mm 2 mps 730 mmHg 92%
08:00 +16°C° 0.1 mm 2 mps 729 mmHg 90%
09:00 +14°C° 0.7 mm 3 mps 729 mmHg 91%
10:00 +14°C° 0.7 mm 3 mps 729 mmHg 92%
11:00 +13°C° 0.7 mm 3 mps 729 mmHg 93%
12:00 +13°C° 0.1 mm 4 mps 730 mmHg 89%
13:00 +14°C° 0.1 mm 5 mps 730 mmHg 84%
14:00 +14°C° 0.1 mm 6 mps 730 mmHg 80%
15:00 +13°C° 0.1 mm 5 mps 731 mmHg 80%
16:00 +13°C° 0.1 mm 5 mps 731 mmHg 80%
17:00 +12°C° 0.1 mm 4 mps 731 mmHg 80%
18:00 +11°C° 0 mm 4 mps 732 mmHg 83%
19:00 +11°C° 0 mm 4 mps 732 mmHg 86%
20:00 +10°C° 0 mm 3 mps 732 mmHg 89%
21:00 +10°C° 0 mm 3 mps 733 mmHg 90%
22:00 +9°C° 0 mm 3 mps 733 mmHg 91%
23:00 +9°C° 0 mm 2 mps 733 mmHg 91%

20 May, Thursday

Time Temperature Precipitation Wind Pressure Humidity
00:00 +8°C° 0 mm 2 mps 733 mmHg 93%
01:00 +8°C° 0 mm 2 mps 734 mmHg 95%
02:00 +7°C° 0 mm 2 mps 734 mmHg 97%
03:00 +7°C° 0 mm 2 mps 734 mmHg 96%
04:00 +7°C° 0 mm 2 mps 735 mmHg 95%
05:00 +7°C° 0 mm 2 mps 735 mmHg 94%
06:00 +9°C° 0 mm 3 mps 735 mmHg 84%
07:00 +10°C° 0 mm 3 mps 736 mmHg 74%
08:00 +12°C° 0 mm 4 mps 736 mmHg 64%
09:00 +13°C° 0 mm 4 mps 736 mmHg 58%
10:00 +14°C° 0 mm 4 mps 736 mmHg 52%
11:00 +15°C° 0 mm 5 mps 736 mmHg 45%
12:00 +17°C° 0 mm 4 mps 736 mmHg 43%
13:00 +17°C° 0 mm 4 mps 736 mmHg 41%
14:00 +18°C° 0 mm 4 mps 736 mmHg 38%
15:00 +18°C° 0 mm 4 mps 736 mmHg 41%
16:00 +17°C° 0 mm 3 mps 736 mmHg 43%
17:00 +17°C° 0 mm 3 mps 736 mmHg 46%
18:00 +14°C° 0 mm 3 mps 737 mmHg 54%
19:00 +13°C° 0 mm 2 mps 737 mmHg 63%
20:00 +10°C° 0 mm 2 mps 737 mmHg 71%
21:00 +10°C° 0 mm 2 mps 737 mmHg 74%
22:00 +9°C° 0 mm 2 mps 737 mmHg 77%
23:00 +8°C° 0 mm 2 mps 737 mmHg 80%
Show more